Temperature
19 19 19 19 19 19 19 19 19 19 19 19 19 19 19 19 19 19 19 19 18 18 18 18 18 18 18 17 17 17 17 17 17 17 16 16 16 16 16 16 16 16 16
19 19 19 19 19 19 19 19 19 19 19 19 19 19 19 19 19 19 19 18 18 18 18 18 18 18 18 18 17 17 17 17 17 17 17 16 16 16 16 16 16 16 16
19 19 19 19 19 19 19 19 19 19 19 19 19 19 19 19 19 19 18 18 18 18 18 18 18 18 18 18 17 17 17 17 17 17 17 17 16 16 16 16 16 16 16
19 19 19 19 19 19 19 19 19 19 19 19 19 19 19 19 19 19 18 18 18 18 18 18 18 18 18 18 17 17 17 17 17 17 16 16 16 16 16 16 16 16 16
19 19 19 19 19 19 19 19 19 19 19 19 19 19 19 19 19 19 19 18 18 18 18 18 18 18 18 18 17 17 17 17 17 17 17 16 16 16 16 16 16 16 16
19 19 19 19 19 19 19 19 19 19 19 19 19 19 19 19 19 19 19 19 19 18 18 18 18 18 18 18 18 17 17 17 17 17 17 16 16 16 16 16 16 16 16
19 19 19 19 19 19 19 19 19 19 19 19 19 19 19 19 19 19 19 19 19 19 18 18 18 18 18 18 18 18 17 17 17 17 17 16 16 16 16 16 16 16 16
19 19 19 19 19 19 19 19 19 19 19 19 19 19 19 19 19 19 19 19 19 19 19 18 18 18 18 18 18 18 17 17 17 17 17 16 16 16 16 16 16 16 16
19 19 19 19 19 19 19 19 19 19 19 19 19 19 19 19 19 19 19 19 19 19 19 19 18 18 18 18 18 17 17 17 17 17 17 17 16 16 16 16 16 16 16
19 19 19 19 19 19 19 19 19 19 19 19 19 19 20 20 19 19 19 19 19 19 19 19 18 18 18 18 18 17 17 17 17 17 17 16 16 16 16 16 16 16 16
19 19 19 19 19 19 19 19 19 19 19 19 19 19 19 19 19 19 19 19 19 19 19 19 18 18 18 18 18 17 17 17 17 17 17 16 16 16 16 16 16 16 15
19 19 19 19 19 19 19 19 19 19 19 19 19 19 19 19 19 19 19 19 19 19 19 19 18 18 18 18 18 17 17 17 17 17 16 16 16 16 16 16 16 16 15
19 19 19 19 19 19 19 19 19 19 19 19 19 19 19 19 19 19 19 19 19 18 19 19 18 18 18 18 17 17 17 17 17 16 16 16 16 16 16 16 16 15 15
19 19 19 19 19 19 19 19 18 19 19 19 18 19 19 19 19 19 19 18 18 18 18 18 18 18 18 17 17 17 17 17 17 16 16 16 16 16 16 16 15 15 15
19 19 19 19 19 18 18 18 18 18 18 18 18 18 18 18 18 18 18 18 18 18 18 18 18 18 18 17 17 17 17 17 16 16 16 16 16 16 15 15 15 15 15
19 19 19 19 18 18 18 18 18 18 18 18 18 18 18 18 18 18 18 18 18 18 18 17 18 18 17 17 17 17 17 16 16 16 16 16 16 15 15 15 15 15 15
19 19 19 18 18 18 18 18 18 18 18 18 18 18 18 18 18 18 18 18 18 18 17 17 17 17 17 17 17 16 16 16 16 16 16 16 15 15 15 15 15 15 15
18 18 18 18 18 18 18 18 18 18 18 17 17 17 18 17 17 17 17 17 17 17 17 17 17 17 16 16 16 16 16 16 16 15 15 15 15 15 15 15 15 14 14
18 18 18 18 18 18 18 18 18 18 17 17 17 17 17 17 17 17 17 17 17 17 17 16 16 16 16 16 16 16 16 15 15 15 15 15 15 15 15 15 14 14 14
18 18 18 18 17 17 17 17 17 17 17 17 17 17 17 17 17 17 17 17 16 16 16 16 16 16 16 16 15 15 15 15 15 15 15 15 15 14 14 14 14 14 14
17 17 17 17 17 17 17 17 17 17 17 17 17 17 17 17 17 17 16 16 16 16 16 16 15 15 15 15 15 15 14 15 14 14 14 14 14 14 14 14 14 14 14
17 17 17 17 17 17 17 17 17 16 16 16 16 16 16 16 16 16 16 16 16 15 15 15 15 15 15 14 14 14 14 14 14 14 14 14 14 14 14 14 14 14 14
17 17 16 16 16 16 16 16 16 16 16 16 16 16 16 16 16 16 16 15 15 15 15 15 14 14 14 14 14 14 14 14 14 14 14 14 14 13 13 13 13 13 13
16 16 16 16 16 16 16 16 16 16 15 15 15 15 15 15 15 15 15 15 15 15 15 14 14 14 14 14 14 14 14 14 14 14 13 13 13 13 13 13 13 13 13
16 16 16 16 16 16 16 16 16 15 15 15 15 15 15 15 15 15 15 15 14 14 14 14 14 14 14 14 14 14 14 13 13 13 13 13 13 13 13 13 13 12 12
16 16 15 16 15 15 15 15 15 15 15 15 14 14 14 14 15 14 14 14 14 14 14 14 14 14 14 13 13 13 13 13 13 12 13 12 12 12 12 12 12 12 12
Wind_Speed
3 3 2 3 3 3 3 2 2 2 2 1 1 2 2 3 6 8 9 12 11 10 9 8 8 7 7 8 8 8 7 7 6 6 6 6 6 6 6 6 6 7 7
3 2 2 2 2 3 3 2 2 2 1 1 1 1 2 3 5 7 9 10 11 11 10 9 8 8 7 8 9 9 9 8 8 8 8 7 7 7 7 7 7 8 8
3 2 2 2 2 3 3 2 2 2 2 2 2 1 1 2 3 4 7 8 9 10 11 10 9 9 8 8 9 9 9 8 8 8 8 8 7 8 8 9 9 9 9
3 1 2 2 1 2 2 2 1 1 1 1 1 1 2 2 3 4 5 7 8 8 10 11 11 10 10 10 10 10 10 9 8 8 8 7 7 8 8 9 9 10 9
3 1 2 1 0 1 1 2 2 1 0 0 1 2 2 2 3 4 4 5 7 8 9 11 12 12 11 11 10 10 10 10 9 9 9 8 8 7 7 8 8 8 9
2 1 2 1 1 2 1 2 1 0 1 1 1 1 1 2 3 3 3 3 4 6 8 8 9 9 12 11 9 9 9 9 10 9 9 8 7 6 6 7 7 8 9
2 2 2 2 1 1 1 0 0 1 1 0 1 1 0 2 3 3 2 2 2 3 5 7 6 6 6 10 10 9 9 9 9 9 9 8 8 8 7 8 8 8 8
1 1 1 1 1 1 1 1 1 1 1 1 1 0 0 1 1 1 3 2 2 2 3 4 5 5 6 6 8 10 10 8 8 9 9 8 8 7 7 8 9 9 8
1 1 1 1 1 1 0 1 1 1 1 0 0 1 1 0 1 0 1 2 2 1 1 2 3 5 5 6 7 8 10 9 8 7 7 7 7 6 6 6 7 8 8
1 1 1 1 1 1 1 1 1 1 1 1 0 1 1 2 1 0 0 1 1 1 1 0 1 3 4 5 6 7 9 9 8 7 6 6 5 5 6 6 6 6 6
1 1 1 1 1 2 1 2 2 2 1 1 1 0 1 2 2 2 1 1 1 1 2 1 1 1 3 4 5 7 9 8 7 7 6 6 6 5 5 5 6 6 6
1 2 2 1 1 1 0 0 1 1 2 2 2 1 1 0 1 1 2 2 1 1 1 2 2 2 2 3 4 6 9 9 8 7 6 6 6 6 6 5 5 6 6
1 1 1 1 1 1 0 1 1 1 1 1 1 1 2 2 1 0 1 1 1 1 1 1 1 1 2 4 4 7 8 9 8 7 7 6 6 6 6 6 6 6 6
1 1 2 1 1 1 0 1 0 1 0 1 1 1 2 2 2 1 1 1 2 1 1 2 0 1 1 3 4 6 5 8 8 8 7 6 6 6 6 6 6 6 6
0 1 1 1 1 0 0 0 0 0 0 1 1 2 1 2 2 2 2 2 1 2 2 2 1 1 1 2 4 4 4 6 8 7 7 7 7 7 6 6 6 6 6
1 1 1 1 0 0 0 1 1 0 1 1 1 2 2 2 2 3 2 2 1 2 2 2 1 1 0 1 2 3 4 6 8 9 9 8 8 8 7 7 7 6 6
1 1 0 0 1 1 1 1 1 1 1 1 1 1 2 2 3 3 3 2 2 1 2 3 2 1 1 2 1 3 4 4 5 9 10 9 9 8 8 8 7 7 7
1 1 1 1 1 1 1 1 2 1 1 2 2 1 2 2 2 3 3 3 3 2 2 3 3 2 2 2 2 3 2 2 3 7 9 10 10 9 8 8 7 7 7
1 1 1 1 1 1 1 1 2 2 1 1 1 1 1 2 2 3 3 3 4 4 2 3 4 2 1 1 2 2 2 2 3 4 7 9 9 9 8 7 7 7 7
1 1 0 1 1 1 1 2 2 2 2 2 1 1 1 1 2 3 3 3 4 4 4 3 3 2 1 1 1 2 2 2 2 2 1 3 6 7 8 7 7 7 7
1 0 0 1 1 1 2 2 3 2 2 2 2 1 1 1 2 2 3 3 4 4 4 3 3 2 2 2 2 3 3 2 2 1 1 2 3 3 4 6 6 6 7
1 1 0 0 1 2 4 4 3 3 2 2 2 2 2 1 2 2 3 3 3 4 4 4 3 3 3 3 3 3 3 2 3 1 2 3 2 3 3 4 7 8 8
1 1 1 0 1 2 4 4 4 4 2 2 2 2 4 2 1 2 4 4 4 5 4 4 4 4 4 3 3 4 3 4 4 3 2 3 2 2 3 4 8 9 9
1 1 1 1 1 1 2 3 4 3 3 2 2 2 2 2 4 4 4 4 4 4 5 4 4 5 5 3 4 5 5 4 4 3 1 3 3 3 2 4 8 10 10
2 2 2 2 1 1 3 3 3 3 2 3 2 1 1 1 3 4 3 4 5 5 5 5 6 7 7 7 5 4 4 3 4 3 2 2 2 3 3 4 6 9 9
2 2 2 2 2 2 2 2 2 2 3 3 2 2 1 1 3 3 3 4 5 5 6 6 6 7 7 7 8 5 4 4 3 3 1 2 3 2 3 2 3 4 6
Wind_Direction
86 94 101 115 121 124 127 116 121 123 121 147 126 121 112 114 117 125 141 157 162 167 171 179 184 188 193 194 194 195 201 201 201 204 204 199 202 208 214 216 220 222 220
91 95 98 93 104 107 111 113 114 117 102 85 64 70 95 103 119 131 143 158 166 172 180 185 187 193 200 203 202 205 208 209 209 207 207 206 208 213 220 226 230 231 229
92 94 98 99 107 122 121 122 140 148 144 141 126 112 109 123 131 134 144 156 170 181 185 188 192 201 209 210 209 211 213 215 216 214 210 210 215 222 229 232 234 233 233
96 98 89 90 113 125 134 121 87 73 90 114 153 173 147 158 172 162 156 163 171 178 189 194 198 205 215 218 219 217 214 216 218 215 212 215 222 228 234 238 237 236 235
88 83 88 77 140 82 59 82 84 54 52 113 185 182 175 177 174 185 174 179 174 168 175 191 199 206 214 218 221 218 216 216 214 216 218 223 227 230 232 234 232 233 234
85 41 98 60 49 59 43 54 71 162 237 250 208 148 188 176 175 174 184 173 161 166 172 176 189 207 214 209 208 210 210 209 211 215 218 221 224 224 228 232 235 238 239
55 41 48 54 56 78 64 47 295 238 208 102 80 13 329 208 163 161 176 174 167 162 161 169 181 184 187 198 204 204 207 210 210 213 217 221 226 229 233 235 237 243 243
48 98 55 43 52 88 39 273 239 264 223 148 155 105 31 355 352 180 162 177 174 170 169 169 166 165 169 165 182 197 202 206 211 214 219 222 227 230 232 237 237 239 241
80 40 54 45 332 71 291 237 298 231 270 215 139 168 165 160 275 2 140 150 140 160 188 167 163 164 171 165 170 187 196 201 205 209 215 218 224 229 232 237 238 239 241
112 102 81 75 18 39 343 301 15 301 271 268 230 188 186 163 178 276 352 119 161 168 201 206 145 146 158 154 158 166 183 194 200 205 208 212 220 229 234 241 244 241 240
162 108 84 67 68 73 27 354 16 350 355 334 301 270 233 208 212 197 223 249 221 185 177 192 181 160 163 159 148 154 169 181 188 200 207 215 223 229 234 240 241 240 242
159 139 136 99 74 104 109 17 357 32 21 356 343 339 320 272 223 198 215 236 241 249 196 183 194 164 148 135 156 163 170 177 185 194 203 213 224 231 233 236 241 244 246
153 121 127 124 122 178 182 75 64 40 18 347 331 328 327 326 330 283 231 262 262 269 299 217 166 135 162 125 132 149 166 176 187 199 207 213 220 226 231 234 241 242 246
72 108 113 149 178 218 164 108 188 176 62 306 326 344 327 331 322 309 259 269 287 288 305 293 130 136 102 123 144 163 172 187 195 199 202 212 221 225 231 234 235 239 242
323 87 108 121 104 72 27 11 295 325 331 299 312 311 290 306 310 312 302 275 255 276 287 276 300 85 68 89 146 175 181 195 201 206 207 216 226 229 231 233 233 237 236
14 47 41 51 28 312 325 251 267 298 166 232 269 318 326 304 305 302 301 301 287 250 269 281 282 279 320 289 189 209 202 200 207 211 208 215 226 228 228 226 229 234 235
227 209 219 281 284 313 315 304 270 270 277 272 267 273 287 307 316 319 320 321 314 302 272 290 300 299 309 294 254 235 227 207 209 211 209 212 218 221 221 223 225 227 230
225 233 230 253 256 274 300 298 292 272 278 293 301 306 303 304 313 321 321 318 311 291 257 273 279 280 268 263 257 249 242 237 227 212 207 208 214 216 218 222 222 222 223
219 250 273 287 308 319 310 313 306 296 284 286 292 292 297 307 310 309 306 309 309 307 287 264 271 268 272 291 299 289 280 270 258 216 208 208 211 212 211 214 217 219 219
213 209 250 307 326 339 330 308 297 283 290 286 285 287 297 310 309 302 298 305 305 304 300 287 279 281 296 308 289 276 276 273 272 267 219 210 206 210 209 206 210 214 214
209 159 316 336 325 305 322 324 298 276 275 291 292 304 304 333 348 324 317 326 320 314 307 300 297 310 308 320 291 277 278 281 278 262 245 225 193 199 204 210 212 214 210
202 150 159 347 321 318 344 351 330 308 293 281 302 315 287 347 337 316 315 315 308 301 307 300 296 298 307 306 302 290 284 288 278 264 261 250 204 213 197 196 203 208 207
199 225 243 181 103 349 344 338 320 298 293 287 290 297 298 313 337 308 297 289 290 283 273 276 283 285 289 296 290 287 286 281 271 264 261 261 242 228 205 199 196 199 203
211 226 214 203 177 311 322 317 305 277 280 287 282 284 299 321 318 323 303 296 286 284 268 259 264 268 270 275 280 274 270 273 273 272 270 260 257 250 227 195 202 203 209
223 224 215 213 215 292 303 301 295 273 272 275 263 261 260 289 325 332 315 303 296 290 284 263 250 254 257 263 268 281 285 283 278 267 299 274 269 269 237 211 209 210 216
230 224 218 227 238 241 241 252 275 271 279 281 264 226 205 251 289 299 293 293 296 304 307 302 281 261 252 250 243 234 252 267 276 271 289 289 281 295 278 239 204 214 222
Height
1518 1519 1519 1520 1521 1523 1524 1525 1526 1527 1528 1529 1530 1531 1531 1532 1532 1532 1532 1533 1534 1535 1535 1536 1537 1538 1539 1539 1540 1541 1542 1543 1544 1545 1545 1546 1547 1547 1548 1549 1550 1550 1551
1520 1520 1521 1522 1523 1524 1525 1526 1527 1528 1529 1530 1530 1531 1531 1532 1532 1532 1533 1533 1534 1535 1535 1536 1536 1537 1538 1538 1539 1540 1541 1542 1542 1543 1544 1545 1545 1546 1547 1547 1548 1548 1549
1522 1522 1523 1524 1524 1525 1526 1526 1527 1528 1529 1530 1530 1531 1531 1532 1533 1533 1533 1533 1534 1534 1535 1535 1536 1537 1537 1538 1538 1538 1539 1540 1541 1541 1542 1543 1544 1544 1545 1545 1546 1546 1546
1523 1524 1524 1525 1526 1526 1526 1527 1528 1528 1529 1530 1530 1531 1531 1531 1532 1532 1533 1533 1533 1534 1534 1535 1536 1536 1536 1537 1537 1537 1537 1538 1539 1539 1540 1541 1542 1542 1542 1543 1543 1544 1544
1524 1525 1525 1525 1526 1526 1527 1527 1527 1528 1529 1530 1530 1531 1531 1531 1531 1532 1533 1533 1533 1534 1534 1534 1535 1535 1535 1535 1535 1535 1536 1536 1537 1537 1538 1539 1540 1540 1540 1541 1541 1541 1541
1525 1525 1526 1525 1526 1526 1526 1527 1527 1528 1529 1529 1530 1530 1530 1531 1531 1532 1533 1533 1533 1533 1533 1534 1534 1534 1533 1533 1534 1534 1534 1534 1535 1535 1536 1537 1537 1538 1538 1538 1538 1539 1539
1526 1526 1526 1526 1526 1526 1526 1527 1527 1528 1528 1529 1529 1530 1530 1530 1531 1531 1532 1532 1533 1533 1533 1533 1533 1532 1532 1532 1532 1532 1533 1533 1533 1534 1534 1534 1534 1535 1535 1535 1535 1536 1536
1526 1526 1525 1526 1526 1526 1526 1527 1527 1527 1528 1529 1529 1529 1530 1531 1530 1531 1531 1532 1532 1532 1532 1532 1532 1532 1531 1531 1531 1531 1531 1531 1531 1531 1531 1531 1532 1532 1532 1532 1532 1532 1532
1526 1525 1526 1526 1526 1526 1526 1526 1527 1527 1527 1528 1528 1529 1529 1529 1530 1530 1530 1531 1531 1531 1531 1531 1531 1530 1530 1529 1529 1529 1529 1529 1529 1529 1529 1529 1529 1529 1529 1529 1529 1529 1529
1526 1526 1526 1526 1526 1526 1525 1526 1526 1526 1526 1527 1527 1528 1529 1529 1529 1529 1530 1530 1530 1530 1530 1530 1530 1529 1529 1528 1527 1527 1527 1527 1527 1526 1526 1526 1526 1526 1526 1526 1526 1526 1526
1526 1526 1526 1525 1525 1525 1525 1525 1525 1525 1525 1525 1526 1527 1527 1528 1528 1528 1528 1529 1529 1529 1529 1528 1528 1527 1527 1526 1526 1525 1525 1524 1524 1524 1524 1523 1523 1523 1523 1523 1523 1523 1523
1526 1525 1525 1525 1525 1525 1525 1525 1524 1524 1525 1525 1525 1526 1527 1527 1527 1527 1527 1527 1527 1528 1527 1526 1526 1525 1525 1524 1524 1523 1523 1522 1521 1521 1521 1520 1520 1520 1520 1520 1520 1520 1520
1525 1525 1525 1525 1524 1524 1524 1524 1524 1524 1524 1525 1525 1525 1526 1526 1526 1526 1525 1526 1526 1526 1526 1525 1524 1522 1522 1522 1521 1521 1520 1519 1519 1518 1518 1518 1517 1517 1517 1517 1517 1517 1517
1525 1525 1524 1524 1524 1524 1524 1524 1523 1524 1524 1524 1524 1524 1524 1525 1525 1525 1525 1525 1524 1524 1524 1523 1522 1521 1520 1519 1519 1519 1518 1517 1516 1516 1515 1515 1514 1514 1514 1514 1513 1513 1513
1524 1524 1523 1523 1523 1523 1523 1523 1523 1523 1523 1523 1523 1523 1523 1523 1523 1524 1524 1524 1524 1522 1522 1522 1521 1520 1519 1518 1517 1516 1515 1514 1513 1513 1512 1512 1511 1511 1510 1509 1509 1509 1510
1523 1522 1522 1522 1522 1522 1522 1522 1522 1522 1522 1522 1522 1522 1522 1522 1522 1522 1522 1522 1521 1521 1519 1519 1519 1518 1517 1516 1515 1514 1513 1512 1511 1510 1509 1509 1508 1507 1506 1506 1506 1506 1506
1521 1521 1521 1521 1521 1521 1521 1521 1521 1521 1521 1521 1521 1520 1520 1520 1520 1520 1520 1519 1519 1519 1517 1516 1516 1516 1514 1513 1512 1511 1510 1509 1508 1507 1506 1505 1505 1504 1503 1502 1502 1502 1502
1519 1519 1519 1519 1519 1519 1520 1519 1519 1519 1519 1519 1519 1519 1518 1518 1518 1518 1517 1517 1516 1516 1515 1514 1513 1513 1512 1511 1510 1509 1508 1506 1505 1505 1504 1503 1502 1501 1500 1500 1499 1499 1499
1517 1517 1517 1517 1517 1517 1517 1517 1517 1517 1517 1517 1516 1516 1516 1516 1515 1515 1515 1514 1514 1514 1513 1512 1510 1510 1509 1508 1507 1506 1505 1504 1503 1502 1501 1500 1499 1498 1497 1497 1496 1496 1495
1515 1515 1515 1515 1515 1515 1515 1515 1515 1515 1514 1514 1514 1514 1513 1513 1513 1512 1512 1512 1511 1510 1510 1509 1508 1507 1506 1505 1504 1502 1501 1501 1500 1499 1498 1497 1496 1495 1495 1494 1494 1493 1493
1513 1513 1513 1513 1513 1513 1513 1513 1513 1512 1512 1512 1512 1511 1511 1511 1510 1510 1510 1508 1508 1507 1506 1505 1504 1503 1502 1501 1500 1499 1499 1498 1497 1496 1495 1494 1493 1492 1492 1491 1491 1490 1490
1511 1511 1511 1511 1511 1511 1511 1510 1510 1510 1509 1509 1508 1508 1508 1508 1507 1507 1506 1506 1505 1504 1502 1502 1501 1500 1499 1498 1497 1496 1495 1495 1493 1493 1492 1491 1490 1489 1489 1488 1488 1488 1488
1508 1508 1509 1508 1508 1508 1508 1508 1507 1507 1506 1506 1505 1505 1505 1504 1504 1503 1503 1502 1501 1500 1500 1499 1497 1496 1496 1495 1494 1493 1492 1491 1490 1490 1489 1488 1487 1486 1486 1485 1485 1485 1485
1506 1505 1505 1506 1506 1506 1506 1505 1505 1504 1504 1503 1503 1502 1502 1501 1500 1499 1499 1498 1497 1496 1496 1495 1494 1493 1493 1492 1491 1490 1489 1488 1487 1487 1486 1484 1483 1483 1483 1482 1482 1482 1482
1503 1503 1503 1503 1503 1503 1503 1502 1502 1501 1500 1500 1500 1499 1498 1498 1498 1496 1495 1494 1493 1492 1492 1491 1490 1489 1489 1488 1487 1486 1485 1484 1482 1482 1482 1481 1480 1480 1479 1478 1478 1478 1478
1501 1500 1500 1500 1500 1500 1499 1499 1499 1498 1497 1497 1496 1496 1495 1494 1494 1493 1492 1491 1489 1488 1488 1486 1486 1485 1484 1484 1483 1482 1481 1480 1479 1478 1478 1478 1476 1476 1476 1475 1475 1475 1474